Wind_Speed
31 30 30 28 27 28 29 29 31 29 30 30 32 32 34 36 38 40 41 43 45 46 48 49 51 52 53 54 55 56 56 57 58 58 59 59 59 59 59 60 60 61 62 62
29 27 27 25 25 27 28 29 30 31 31 33 34 35 36 39 42 44 45 47 49 51 53 54 55 57 58 58 59 60 60 60 61 61 61 61 61 60 60 61 61 61 61 61
27 26 27 26 26 27 27 28 30 32 34 35 37 39 41 43 46 48 50 52 54 56 58 59 61 62 62 62 63 63 64 64 64 64 64 63 63 62 62 62 62 61 60 60
29 28 27 26 27 28 29 30 33 34 37 39 41 43 45 48 51 53 55 58 60 62 63 64 65 66 66 66 66 66 66 66 66 66 65 65 64 64 63 62 61 60 60 59
30 30 28 27 28 31 33 34 35 38 40 43 45 47 49 52 55 58 61 63 65 66 67 68 69 69 69 69 69 69 69 68 67 67 66 65 65 64 63 61 60 59 58 58
32 33 31 31 33 35 38 40 41 43 46 48 50 53 54 58 60 62 65 67 68 70 71 71 71 72 71 70 70 70 69 68 67 67 66 65 64 63 62 60 59 58 57 57
34 36 35 36 38 40 42 45 47 49 51 54 57 60 62 64 65 67 69 71 73 73 74 74 74 74 72 71 70 70 69 67 66 66 65 64 62 61 59 58 57 56 55 54
37 38 39 41 42 44 47 49 51 54 56 59 61 64 66 68 70 72 73 75 75 76 76 75 75 74 73 71 70 69 67 66 64 63 62 61 59 58 57 55 54 52 51 50
41 41 42 45 48 50 53 54 56 59 61 63 65 67 69 71 73 75 76 77 78 78 77 75 74 73 72 70 68 67 65 63 62 60 59 58 56 54 52 51 49 48 47 47
44 44 45 48 50 53 56 58 60 63 65 67 69 71 73 75 76 78 78 79 79 78 77 74 72 71 69 68 66 64 62 61 60 58 56 54 52 51 49 48 46 45 45 44
48 48 51 52 55 58 60 62 64 66 68 71 73 74 76 77 78 79 79 78 77 76 75 72 71 69 67 66 64 62 60 58 56 54 52 49 48 47 46 44 44 43 43 43
51 52 56 57 60 62 64 65 67 69 71 73 75 76 77 78 78 78 77 76 75 73 71 69 68 66 64 63 61 59 56 54 52 49 47 45 44 43 43 42 42 42 43 43
54 57 59 61 64 65 67 69 70 72 74 75 76 77 78 78 77 76 74 73 72 70 67 66 64 62 60 59 57 54 52 50 48 46 44 42 41 40 39 39 40 41 42 43
59 61 63 64 66 68 69 71 72 74 75 75 76 76 76 76 74 72 70 69 68 66 64 62 61 59 57 55 53 51 49 47 45 43 41 40 39 38 38 38 38 39 41 42
63 65 66 67 69 70 71 72 73 74 74 74 74 74 73 72 70 67 66 65 63 61 60 59 57 55 54 52 50 48 46 44 42 40 39 38 38 38 38 38 38 39 40 42
65 67 68 69 70 72 73 74 74 74 73 72 71 70 69 67 65 64 62 62 60 58 57 56 54 52 50 49 46 44 42 41 40 38 37 37 37 37 37 38 39 40 40 40
66 67 68 70 71 72 72 72 72 71 70 69 67 65 64 62 61 60 59 58 57 55 55 53 51 49 47 46 44 42 40 38 38 37 36 36 37 37 38 39 39 39 38 37
68 69 70 71 71 71 69 68 67 66 64 63 61 60 59 59 58 57 56 54 53 52 51 50 48 46 45 43 42 40 39 38 37 36 36 36 37 38 39 39 38 37 36 34
68 69 69 68 67 66 65 64 63 61 59 58 57 56 55 55 55 54 53 52 51 50 48 47 46 44 43 42 41 39 38 37 36 35 35 36 36 37 38 37 36 35 32 31
68 67 66 64 63 62 60 59 58 56 55 54 54 53 52 52 53 52 51 49 49 49 47 45 43 42 41 40 39 38 37 36 35 34 35 35 36 36 35 35 34 32 30 29
66 64 63 61 60 58 57 56 55 53 52 51 52 51 51 50 50 50 49 48 46 47 45 44 42 41 40 39 37 36 35 34 33 33 34 34 35 34 34 33 31 29 28 27
63 61 60 59 57 55 54 53 53 52 50 49 49 49 49 48 48 48 48 48 47 46 44 43 41 40 39 37 36 35 34 32 32 32 33 33 33 33 31 30 28 27 26 25
60 59 57 56 55 54 52 51 51 50 49 48 47 47 47 48 48 48 47 46 46 44 43 42 40 38 37 35 34 33 32 31 30 31 31 32 32 31 29 27 26 25 24 23
57 56 55 54 54 53 50 49 48 47 47 46 46 46 47 47 46 47 47 46 44 43 42 40 38 37 35 33 31 30 29 29 29 29 30 30 29 29 26 24 23 22 21 20
56 55 54 53 52 51 50 48 46 45 45 44 43 44 45 46 46 45 45 44 43 42 40 38 37 35 33 31 29 28 28 28 28 28 28 28 27 26 23 21 21 20 18 16
55 55 53 52 51 49 48 46 45 43 43 42 41 42 43 44 45 45 44 43 42 41 39 36 34 32 30 29 28 27 27 26 26 27 26 26 25 23 21 19 18 17 15 13
54 53 52 50 48 47 45 43 42 41 40 41 40 41 42 43 43 43 42 41 40 38 36 34 32 29 28 27 26 25 25 25 25 25 24 24 22 20 17 15 14 13 11 9
Wind_Direction
291 291 291 294 296 296 298 301 303 307 307 307 309 313 314 314 314 314 315 314 314 314 313 313 312 311 310 310 309 308 307 306 305 304 302 301 300 299 297 295 293 292 292 291
289 289 289 293 293 293 296 298 301 305 306 307 311 312 313 312 311 312 313 313 313 313 312 312 311 310 309 309 308 307 306 305 304 303 302 301 301 299 298 296 294 293 293 292
286 286 289 292 292 293 295 298 301 303 306 308 310 311 311 311 310 311 312 312 312 312 311 311 310 310 309 308 307 306 306 305 303 302 302 301 300 299 298 296 295 293 292 292
284 284 287 291 292 293 295 299 301 303 306 308 308 309 310 310 310 311 311 311 311 311 311 310 310 309 308 307 307 306 305 305 304 303 302 301 300 299 298 297 296 294 292 292
285 286 288 289 291 294 296 299 301 304 305 306 307 307 309 309 310 311 311 311 311 310 310 309 309 308 307 307 306 306 305 304 303 303 302 301 300 299 298 296 295 294 293 292
286 287 291 294 294 296 299 300 302 305 306 307 307 307 308 309 309 309 309 309 309 309 309 308 308 307 307 307 306 305 305 304 303 303 302 301 301 299 297 296 295 294 293 293
285 288 292 294 296 298 300 303 305 307 307 307 308 309 309 309 309 308 308 308 308 308 308 308 307 307 307 306 306 305 305 304 303 303 302 302 301 299 297 296 296 295 295 295
284 288 293 294 297 299 301 303 305 306 306 307 307 307 307 307 307 307 307 308 307 307 308 308 307 307 306 306 305 305 304 304 303 302 301 301 301 300 298 297 297 296 296 296
286 289 293 295 298 300 302 303 304 305 305 305 305 306 306 306 306 307 307 307 307 307 307 307 307 307 306 306 305 305 304 303 302 301 301 301 301 301 300 299 299 298 298 298
285 289 292 294 297 299 300 301 302 303 304 304 304 305 305 305 306 306 306 306 306 307 307 307 307 306 306 305 305 305 304 303 302 302 301 301 301 301 302 301 300 299 300 300
286 290 292 295 297 299 300 301 302 303 304 304 304 304 304 305 305 306 306 306 306 307 307 307 306 306 306 305 305 305 305 305 304 303 303 302 301 301 302 302 302 302 302 302
291 293 295 297 298 300 301 301 302 302 302 302 303 304 304 305 305 306 306 306 306 307 307 307 307 307 306 306 307 307 307 307 307 306 304 303 303 303 302 303 303 304 305 305
292 294 296 297 298 299 300 300 301 301 302 302 303 304 304 305 305 306 306 307 307 308 308 308 308 308 308 308 308 309 308 308 308 308 307 306 305 305 304 304 305 305 306 306
293 294 295 297 298 298 299 300 300 301 302 303 303 304 305 305 306 307 307 307 308 308 309 309 309 309 309 309 310 310 310 310 310 309 308 307 307 307 307 306 306 306 306 307
293 295 296 296 297 298 299 300 300 301 302 303 304 304 305 306 306 307 307 307 308 309 309 309 309 310 311 311 311 312 312 312 312 311 310 309 309 308 308 308 308 308 307 307
294 295 295 296 297 298 299 300 301 302 303 304 304 305 305 306 307 307 308 308 309 310 310 310 311 312 312 312 313 313 313 313 312 312 311 311 311 310 310 311 311 310 309 309
293 295 296 297 298 299 300 302 303 303 304 304 305 305 305 306 306 307 307 308 310 311 311 311 312 313 313 313 314 315 314 313 312 312 312 312 313 313 313 313 313 312 311 309
294 296 297 298 299 300 302 302 303 303 303 303 304 304 305 306 307 307 308 309 310 310 311 312 313 313 313 314 316 316 315 314 313 313 312 313 314 315 315 315 314 314 312 310
296 297 298 299 300 301 301 302 302 302 302 302 303 304 305 307 307 308 309 310 310 311 312 312 312 313 314 315 315 316 315 314 314 314 314 315 316 316 317 316 315 314 313 312
296 297 298 299 299 300 300 300 300 301 301 301 302 303 304 306 308 309 310 311 311 312 313 313 313 313 314 315 316 316 315 315 315 315 315 316 317 318 318 318 317 316 315 314
296 297 297 297 297 297 298 298 298 299 299 300 300 302 304 306 308 309 310 311 311 311 313 313 313 314 314 315 316 316 315 315 315 316 317 318 319 320 320 319 319 318 317 315
296 296 296 296 296 295 296 296 297 297 298 298 299 301 303 305 307 308 310 311 312 312 313 313 313 313 314 315 316 315 315 315 316 317 319 320 321 321 321 320 320 320 318 317
295 296 296 295 295 295 295 295 295 296 297 298 299 301 303 305 307 308 309 310 311 311 312 313 313 314 314 315 315 315 315 316 317 319 320 322 322 323 322 321 322 322 321 320
294 294 294 294 294 294 294 294 294 295 296 297 299 300 302 304 305 307 309 310 311 311 312 313 314 314 315 314 314 315 315 316 318 320 322 323 324 325 324 324 325 325 325 324
293 293 293 293 292 292 292 292 293 294 295 296 298 299 301 303 305 307 308 309 310 311 312 313 313 314 314 314 314 315 316 317 319 321 323 324 325 326 325 325 327 329 329 329
291 291 291 291 291 291 291 291 293 294 295 296 298 299 301 303 305 306 308 309 310 311 312 312 312 312 312 313 313 314 315 317 319 321 323 325 326 326 325 326 329 331 332 333
290 290 290 289 289 289 290 291 292 293 294 296 298 299 301 303 304 305 307 308 309 309 310 310 310 311 311 312 313 313 315 317 319 321 322 323 325 326 326 327 330 333 336 339
Height
5766 5764 5761 5759 5758 5755 5751 5749 5747 5746 5743 5741 5737 5735 5731 5726 5721 5717 5712 5707 5702 5697 5691 5686 5680 5673 5667 5660 5653 5646 5639 5632 5624 5617 5610 5603 5596 5590 5583 5577 5571 5565 5559 5554
5758 5755 5753 5753 5751 5748 5746 5743 5740 5738 5736 5733 5730 5726 5722 5718 5712 5708 5703 5698 5692 5686 5680 5674 5667 5660 5653 5646 5639 5631 5624 5616 5609 5602 5594 5587 5580 5573 5566 5560 5554 5548 5542 5536
5750 5748 5746 5746 5744 5741 5739 5737 5734 5731 5729 5725 5721 5717 5713 5708 5702 5697 5692 5686 5680 5674 5667 5660 5653 5645 5638 5631 5623 5615 5608 5600 5592 5585 5578 5570 5563 5556 5549 5543 5536 5530 5524 5519
5741 5741 5740 5741 5736 5734 5731 5730 5726 5723 5720 5716 5712 5708 5703 5697 5691 5685 5679 5673 5666 5659 5652 5645 5637 5629 5622 5614 5606 5598 5590 5582 5573 5566 5559 5552 5545 5538 5531 5525 5519 5513 5507 5502
5732 5730 5732 5732 5729 5725 5723 5721 5718 5715 5711 5707 5702 5698 5693 5685 5678 5672 5665 5659 5651 5644 5636 5629 5620 5612 5604 5596 5588 5580 5571 5563 5555 5547 5540 5533 5526 5519 5513 5507 5501 5495 5490 5485
5723 5721 5723 5723 5720 5716 5714 5710 5708 5704 5699 5695 5689 5685 5681 5672 5666 5659 5651 5644 5636 5628 5620 5611 5602 5594 5586 5578 5569 5561 5553 5545 5536 5528 5520 5514 5507 5501 5494 5489 5484 5478 5473 5467
5714 5712 5713 5712 5709 5706 5704 5700 5696 5691 5686 5681 5675 5670 5664 5657 5650 5642 5635 5627 5618 5610 5602 5592 5583 5575 5567 5558 5550 5541 5534 5526 5517 5509 5501 5495 5489 5482 5476 5471 5466 5461 5456 5451
5706 5705 5706 5701 5698 5695 5692 5688 5684 5679 5673 5668 5662 5655 5648 5641 5634 5626 5618 5609 5601 5592 5584 5574 5564 5555 5548 5540 5531 5523 5515 5507 5499 5491 5484 5477 5471 5465 5459 5453 5449 5444 5440 5435
5697 5698 5695 5690 5686 5682 5679 5675 5670 5665 5660 5653 5647 5640 5633 5626 5617 5609 5600 5591 5582 5574 5566 5556 5545 5535 5527 5520 5512 5504 5497 5489 5481 5474 5467 5460 5454 5448 5443 5437 5433 5429 5424 5420
5687 5688 5684 5680 5676 5672 5667 5662 5657 5651 5645 5638 5631 5624 5617 5608 5600 5591 5582 5573 5564 5555 5547 5538 5528 5518 5508 5501 5493 5486 5479 5472 5464 5458 5451 5445 5439 5433 5428 5423 5418 5414 5409 5405
5676 5676 5672 5668 5663 5658 5653 5647 5641 5635 5628 5621 5614 5607 5599 5591 5582 5573 5564 5555 5545 5536 5528 5520 5511 5502 5492 5483 5476 5470 5463 5455 5448 5441 5435 5430 5425 5419 5414 5409 5404 5400 5396 5391
5665 5662 5658 5654 5648 5643 5637 5632 5625 5619 5612 5604 5596 5589 5581 5573 5564 5555 5546 5536 5528 5519 5510 5501 5492 5485 5476 5467 5460 5453 5447 5441 5434 5427 5421 5416 5411 5407 5401 5396 5391 5386 5381 5377
5651 5647 5642 5638 5632 5627 5621 5615 5609 5602 5594 5587 5579 5571 5563 5555 5546 5537 5528 5518 5510 5501 5493 5484 5476 5468 5460 5453 5445 5439 5432 5426 5420 5414 5408 5403 5398 5394 5390 5385 5379 5374 5369 5364
5636 5632 5628 5622 5617 5611 5605 5598 5592 5584 5577 5569 5561 5553 5545 5537 5529 5520 5511 5502 5493 5485 5477 5468 5461 5454 5446 5439 5432 5426 5419 5413 5407 5401 5396 5391 5386 5382 5377 5373 5369 5363 5358 5352
5619 5615 5611 5605 5599 5593 5587 5581 5574 5567 5559 5552 5543 5535 5527 5519 5512 5504 5495 5486 5479 5471 5463 5454 5447 5440 5433 5426 5419 5413 5407 5401 5395 5390 5384 5379 5375 5370 5366 5361 5357 5352 5347 5341
5603 5598 5593 5588 5582 5576 5569 5563 5556 5549 5542 5534 5526 5519 5511 5502 5495 5488 5480 5472 5464 5457 5449 5441 5434 5427 5420 5413 5407 5402 5396 5390 5384 5379 5374 5369 5364 5360 5355 5350 5345 5340 5335 5329
5586 5581 5576 5571 5565 5558 5551 5544 5537 5530 5524 5517 5510 5503 5495 5488 5481 5475 5467 5460 5451 5444 5436 5428 5422 5416 5409 5402 5396 5391 5385 5380 5374 5369 5364 5359 5354 5349 5345 5339 5334 5329 5323 5318
5569 5564 5558 5552 5546 5540 5534 5527 5520 5513 5507 5500 5494 5488 5481 5473 5466 5460 5454 5447 5440 5433 5425 5417 5411 5404 5398 5392 5386 5380 5375 5370 5365 5360 5355 5350 5345 5340 5334 5329 5323 5318 5313 5308
5551 5546 5541 5535 5528 5522 5517 5511 5504 5498 5492 5485 5479 5474 5467 5460 5453 5447 5440 5434 5427 5420 5415 5407 5400 5394 5388 5382 5376 5371 5365 5360 5355 5351 5346 5341 5336 5330 5325 5319 5314 5309 5304 5300
5534 5529 5524 5518 5512 5506 5500 5495 5489 5484 5478 5471 5465 5460 5455 5449 5442 5435 5429 5423 5415 5407 5402 5396 5390 5384 5378 5373 5367 5362 5356 5351 5347 5342 5337 5332 5327 5322 5316 5311 5306 5301 5296 5292
5516 5511 5506 5501 5496 5491 5485 5479 5474 5469 5465 5459 5452 5447 5441 5436 5430 5423 5417 5411 5406 5398 5392 5386 5379 5374 5369 5363 5358 5353 5348 5343 5338 5334 5329 5324 5319 5314 5309 5303 5298 5294 5289 5285
5499 5494 5490 5484 5480 5476 5472 5465 5459 5454 5450 5445 5440 5434 5429 5424 5419 5413 5407 5400 5394 5387 5381 5376 5370 5364 5359 5354 5349 5345 5340 5335 5331 5327 5322 5317 5312 5307 5302 5297 5292 5287 5283 5279
5482 5477 5472 5468 5463 5459 5456 5451 5445 5440 5436 5432 5427 5422 5417 5412 5406 5400 5395 5390 5383 5377 5372 5366 5360 5355 5350 5346 5341 5337 5332 5328 5324 5320 5315 5310 5305 5300 5295 5290 5286 5281 5278 5274
5465 5460 5456 5451 5447 5442 5439 5436 5431 5427 5423 5419 5415 5410 5404 5400 5396 5390 5384 5378 5373 5367 5362 5356 5351 5346 5342 5337 5333 5329 5325 5321 5317 5313 5309 5304 5299 5294 5289 5285 5281 5277 5273 5270
5447 5443 5439 5435 5431 5427 5424 5420 5417 5414 5410 5407 5404 5399 5393 5388 5383 5379 5374 5368 5362 5357 5352 5347 5342 5338 5334 5330 5326 5322 5319 5315 5311 5307 5303 5298 5294 5289 5285 5281 5277 5274 5270 5267
5430 5426 5423 5419 5415 5412 5408 5406 5403 5401 5397 5394 5392 5387 5382 5378 5372 5367 5363 5358 5353 5347 5343 5338 5334 5330 5326 5323 5319 5316 5312 5309 5305 5301 5297 5293 5289 5285 5281 5278 5275 5271 5268 5265
5414 5410 5406 5404 5401 5397 5394 5392 5390 5388 5385 5382 5379 5376 5371 5366 5362 5357 5352 5348 5343 5338 5334 5330 5326 5322 5319 5316 5313 5309 5306 5303 5300 5296 5292 5289 5285 5281 5278 5275 5273 5270 5267 5265